This is the latest recevied weather packets stored in our database for station/object K1RFS. If no packets are shown the sender has not sent any weather packets the latest 10 day(s).
| Time | Temp. | Humidity | Pressure | Rain* | Wind** | Luminosity | Snow |
|---|---|---|---|---|---|---|---|
| 1787802372 | 23.33° C | 43% | 1006.2 hPa | 0 mm | - | 0 W/m² | - |
| 1787802066 | 23.33° C | 43% | 1006.2 hPa | 0 mm | - | 0 W/m² | - |
| 1787801762 | 23.89° C | 43% | 1006.2 hPa | 0 mm | - | 0 W/m² | - |
| 1787801457 | 23.89° C | 43% | 1006.1 hPa | 0 mm | - | 0 W/m² | - |
| 1787801151 | 23.89° C | 43% | 1006 hPa | 0 mm | - | 0 W/m² | - |
| 1787800850 | 23.89° C | 43% | 1006 hPa | 0 mm | - | 0 W/m² | - |
| 1787800545 | 23.33° C | 44% | 1006.1 hPa | 0 mm | - | 0 W/m² | - |
| 1787800240 | 23.89° C | 44% | 1005.7 hPa | 0 mm | - | 0 W/m² | - |
| 1787799939 | 23.89° C | 43% | 1005.8 hPa | 0 mm | - | 0 W/m² | - |
| 1787799633 | 24.44° C | 43% | 1005.8 hPa | 0 mm | - | 0 W/m² | - |
| 1787799331 | 25° C | 44% | 1005.7 hPa | 0 mm | - | 0 W/m² | - |
| 1787799030 | 25.56° C | 41% | 1005.4 hPa | 0 mm | - | 0 W/m² | - |
| 1787798730 | 25.56° C | 41% | 1005.5 hPa | 0 mm | - | 0 W/m² | - |
| 1787798425 | 25.56° C | 41% | 1005.4 hPa | 0 mm | - | 0 W/m² | - |
| 1787798120 | 25.56° C | 41% | 1005.5 hPa | 0 mm | - | 0 W/m² | - |
| 1787797818 | 26.11° C | 41% | 1005.6 hPa | 0 mm | - | 0 W/m² | - |
| 1787797513 | 26.11° C | 43% | 1005.3 hPa | 0 mm | - | 0 W/m² | - |
| 1787797208 | 26.11° C | 43% | 1005.3 hPa | 0 mm | - | 1 W/m² | - |
| 1787796903 | 26.11° C | 43% | 1005.5 hPa | 0 mm | - | 1 W/m² | - |
| 1787796598 | 26.67° C | 43% | 1005.5 hPa | 0 mm | - | 2 W/m² | - |
| 1787796294 | 27.22° C | 43% | 1005.4 hPa | 0 mm | - | 3 W/m² | - |
| 1787795992 | 27.78° C | 41% | 1005.3 hPa | 0 mm | - | 4 W/m² | - |
| 1787795692 | 28.33° C | 39% | 1005.5 hPa | 0 mm | - | 6 W/m² | - |
| 1787795387 | 28.89° C | 36% | 1005.5 hPa | 0 mm | - | 8 W/m² | - |
| 1787795086 | 29.44° C | 36% | 1005.5 hPa | 0 mm | - | 12 W/m² | - |
* Rain latest hour (hover to see other rain measurements)
** Current wind speed in m/s (hover to see current wind gust speed)